Regional Weather Roundup
Issued by NWS

Home | Current Version | Previous Version | Text Only | Print | Product List | Glossary Off
Versions: 1 2 3 4 5 6 7 8 9 10 11 12 13 14 15 16 17 18 19 20 21 22 23 24 25 26 27 28 29 30 31 32 33 34 35 36 37 38 39 40 41 42 43 44 45 46 47 48 49 50

000
ASUS43 KLOT 210503
RWRIL

ILLINOIS REGIONAL WEATHER ROUNDUP
NATIONAL WEATHER SERVICE CHICAGO/ROMEOVILLE IL
1100 PM CST MON NOV 20 2017

NOTE: "FAIR" INDICATES FEW OR NO CLOUDS BELOW 12,000 FEET WITH NO
SIGNIFICANT WEATHER AND/OR OBSTRUCTIONS TO VISIBILITY.

* THESE STATIONS ARE NOT UNDER NWS QUALITY CONTROL. THEY ALSO MAY NOT
  REPORT WEATHER SUCH AS PRECIPITATION OR FOG.

ILZ001-002-007-009-015-016-024-210600-
NORTHWEST ILLINOIS

CITY           SKY/WX    TMP DP  RH WIND       PRES   REMARKS
MOLINE         PTCLDY    50  30  46 S13G23    29.66F
STERLING*      CLOUDY    47  32  56 VRB7      29.67F
SAVANNA*       CLOUDY    43  33  67 S8        29.65S
$$

ILZ003-004-008-010-011-017-018-210600-
NORTH CENTRAL ILLINOIS

CITY           SKY/WX    TMP DP  RH WIND       PRES   REMARKS
ROCKFORD       CLOUDY    47  31  53 SW14      29.66F
FREEPORT*      PTCLDY    44  32  63 SW17G23   29.64S
ROCHELLE*      CLOUDY    42  33  71 S16G23    29.67F
DE KALB*       PTCLDY    40  33  75 S20G26    29.68F
PERU*          CLOUDY    43  31  63 S15       29.72F
$$

ILZ005-006-012>014-019>023-210600-
NORTHEAST ILLINOIS

CITY           SKY/WX    TMP DP  RH WIND       PRES   REMARKS
CHICAGO-OHARE  CLOUDY    45  30  55 S24G39    29.69F
CHICAGO-MIDWAY CLOUDY    45  31  58 S18G32    29.72F
AURORA         CLOUDY    44  32  62 S18G31    29.71F
LANSING*       CLOUDY    42  32  68 SW22G31   29.76F
JOLIET*        CLOUDY    43  32  65 S14G24    29.74F
WAUKEGAN       CLOUDY    45  31  58 SW23G32   29.63F
DUPAGE AIRPORT PTCLDY    42  32  67 S17G26    29.69F
KANKAKEE*      CLOUDY    41  30  64 SW18G24   29.80F
WHEELING       MOCLDY    46  31  55 SW21G29   29.69F
MORRIS*        MOCLDY    43  32  65 S20G29    29.72F
ROMEOVILLE*    CLOUDY   N/A N/A N/A SW21G31   29.72F
NORTHERLY ISL    N/A     45  28  52 SE21        N/A
$$

LMZ740>746-210600-
SOUTHERN LAKE MICHIGAN

STATION/POSITION SKY/WX   TEMP    WIND        PRES    VSBY  WAVE
                          AIR SEA DIR/SP/G                  HT/PER
                          (F)     (DEG/KT/KT) (MB)    (MI)  (FT/S)
SOUTHERN BUOY              48 48  220/ 29/ 35 1004.0         10/ 7
HARRISON CRIB              46     210/ 34/ 37   N/A
BURNHAM HARBOR             45     170/ 17/ 23   N/A
CALUMET HARBOR             44     190/ 16/ 24 1006.4F
BURNS HARBOR               45     200/ 23/ 30 1007.8F
MICHIGAN CITY              44     170/ 22/ 26   N/A
$$

ILZ025>027-034>036-040-047-049-050-058-095>099-210600-
WEST-CENTRAL ILLINOIS

CITY           SKY/WX    TMP DP  RH WIND       PRES   REMARKS
QUINCY         CLOUDY    50  30  46 SW17      29.76F
MACOMB*        CLOUDY    47  31  54 S14       29.76F
JACKSONVILLE*  CLOUDY    45  30  55 S13       29.80F
PITTSFIELD*    CLOUDY    51  30  45 S13G18    29.80F
$$

ILZ028>032-037-038-041>044-048-051>054-059>061-210600-
CENTRAL ILLINOIS

CITY           SKY/WX    TMP DP  RH WIND       PRES   REMARKS
PONTIAC        PTCLDY    43  33  67 S23G31    29.78F
BLOOMINGTON    CLOUDY    41  31  67 SW22G31   29.79F
DECATUR        PTCLDY    42  31  64 S18       29.86F
PEORIA         CLOUDY    44  32  62 S17G24    29.77F
LACON*         CLOUDY    46  31  56 S15G22    29.73F
LINCOLN*       PTCLDY    44  33  66 S15G23    29.81F
SPRINGFIELD    PTCLDY    43  32  65 S15       29.83F
TAYLORVILLE    PTCLDY    40  32  71 S15G21    29.86F
$$

ILZ033-039-045-046-055>057-062-063-210600-
EAST-CENTRAL ILLINOIS

CITY           SKY/WX    TMP DP  RH WIND       PRES   REMARKS
CHAMPAIGN      CLOUDY    40  30  67 S20       29.86F
DANVILLE*      CLOUDY    40  28  61 S17G24    29.85S
RANTOUL*       CLOUDY    42  32  67 S14G22    29.85F
MATTOON        CLOUDY    41  28  60 S10       29.90S
PARIS*         CLOUDY    40  29  65 S17       29.91F
$$

ILZ079-100>102-210600-
SOUTHWEST ILLINOIS

CITY           SKY/WX    TMP DP  RH WIND       PRES   REMARKS
ALTON          MOCLDY    42  32  66 S10       29.89S
BELLEVILLE     PTCLDY    41  29  62 SW9       29.90S
CAHOKIA*       CLOUDY    46  28  49 S6        29.90R
SPARTA*        CLOUDY    42  28  58 S9G16     29.94F
$$

ILZ064>066-069>071-074>076-080>082-084>086-088>090-092>094-210600-
SOUTH-CENTRAL ILLINOIS

CITY           SKY/WX    TMP DP  RH WIND       PRES   REMARKS
CARBONDALE     CLEAR     44  28  53 S15       29.95F
CAIRO*         CLEAR     39  28  64 SW5       30.01F
EFFINGHAM*     CLOUDY    42  28  57 S7        29.94S
MARION         CLEAR     44  28  52 SW12      29.97S
MT. VERNON     CLOUDY    41  30  65 SW13      29.95R
CENTRALIA*     CLOUDY    41  30  63 SW7       29.93S
SALEM*         CLOUDY    44  28  52 S14       29.93S
METROPOLIS*    CLEAR     40  26  57 S5        30.00F
$$

ILZ067-068-072-073-078-083-087-091-210600-
SOUTHEAST ILLINOIS

CITY           SKY/WX    TMP DP  RH WIND       PRES   REMARKS
LAWRENCEVILLE  CLEAR     38  28  67 S7        29.96S WCI  33
FLORA*         CLEAR     39  29  67 SW6       29.95R WCI  35
FAIRFIELD*     CLOUDY    40  28  60 S3        29.94S
HARRISBURG*    CLEAR     44  27  52 SW10G17   29.98S
ROBINSON*      CLEAR     40  26  58 S9        29.96R
CARMI*         CLEAR     35  28  75 SE5       29.97F WCI  30
$$

ABBREVIATIONS USED IN REMARKS
   TC - TEMPERATURE IN CELSIUS
  WCI - WIND CHILL INDEX
   HX - HEAT INDEX
  VSB - VISIBILITY
$$





USA.gov is the U.S. government's official web portal to all federal, state and local government web resources and services.